Location: ?
(35.4996°N, 139.3166°E)
Time: 14:29:40
(UTC+00:00)

PAYLOAD A - Pass Details

Date: 18 April 2024
Orbit: 690 x 831 km, 98.5° (Epoch: 17 May)

Event Time Altitude Azimuth Distance (km) Brightness Sun altitude
Rises 18:15:10 0° 14° (NNE) 3,149 7.9 -21.4°
Reaches altitude 10° 18:17:29 10° 15° (NNE) 2,205 7.0 -21.0°
Maximum altitude 18:22:18 79° 102° (ESE) 719 3.9 -20.1°
Enters shadow 18:25:00 26° 187° (S) 1,371 5.0 -19.7°
